Simultaneous Nadir Overpasses (SNOs) Predictions

Prediction of SNOs between GOES-16 and TERRA Satellite Orbit:

Table of predicted SNOs for the next 14.0 days since TLE Epoch: 8/5/2023
Index Date Time (GOES-16) GOES-16 Lat,Lon TERRA Lat,Lon Distance(km) Time Diff (sec)
1 08/07/2023 03:06:24 -0.00, -75.22 -0.07, -75.40 21.21 80
2 08/09/2023 02:47:24 0.00, -75.25 0.83, -71.46 431.38 80
3 08/09/2023 15:10:15 -0.00, -75.27 0.25, -76.36 124.26 80
4 08/11/2023 14:51:14 -0.00, -75.31 -0.60, -72.42 328.71 80
5 08/12/2023 03:14:13 0.01, -75.31 -0.44, -77.35 232.57 80
6 08/14/2023 02:55:12 0.01, -75.36 0.44, -73.41 221.32 80
7 08/14/2023 15:18:03 -0.01, -75.38 0.63, -78.31 333.87 80
8 08/16/2023 14:59:01 -0.00, -75.43 -0.21, -74.36 121.26 80
9 08/17/2023 03:21:59 0.00, -75.44 -0.82, -79.30 439.38 80
